DW9918 Weather Reports


Display with metric or nautical units.
time (UTC)temp
F
wind
direction
speed
MPH
gust
MPH
rain 1hr
in
rain 24hr
in
rain mn
in
humidity
%
barometer
mb
20260508031133 61 101 0.0 6.0 0.00 0.00 0.00 91 1014.4
20260508030141 61 93 4.0 6.0 0.00 0.00 0.00 91 1014.4
20260508030007 60 103 4.0 6.0 0.00 0.00 0.00 90 1014.1
20260508025125 61 82 4.0 6.0 0.00 0.00 0.00 91 1014.4
20260508024528 60 88 4.0 6.0 0.00 0.00 0.00 91 1014.0
20260508024140 61 94 5.0 7.0 0.00 0.00 0.00 92 1014.4
20260508023152 61 93 5.0 8.0 0.00 0.00 0.00 92 1014.4
20260508023032 60 94 5.0 8.0 0.00 0.00 0.00 92 1014.0
20260508022130 61 91 3.0 5.0 0.00 0.00 0.00 92 1014.3
20260508021517 60 89 4.0 5.0 0.00 0.00 0.00 91 1014.0
20260508021135 61 100 4.0 5.0 0.00 0.00 0.00 92 1014.4
20260508020150 61 89 4.0 8.0 0.00 0.00 0.00 92 1014.4
20260508020016 60 88 5.0 8.0 0.00 0.00 0.00 91 1014.0
20260508015147 61 88 3.0 5.0 0.00 0.00 0.00 91 1014.5
20260508014511 61 86 3.0 5.0 0.00 0.00 0.00 90 1014.0
20260508014203 61 84 3.0 7.0 0.00 0.00 0.00 91 1014.5
20260508013154 61 94 5.0 7.0 0.00 0.00 0.00 92 1014.4
20260508013006 61 95 4.0 6.0 0.00 0.00 0.00 91 1014.1
20260508012137 61 105 3.0 5.0 0.00 0.00 0.00 91 1014.4
20260508011535 61 96 4.0 7.0 0.00 0.00 0.00 90 1014.1
20260508011144 61 93 6.0 7.0 0.00 0.00 0.00 91 1014.4
20260508010138 61 96 4.0 6.0 0.00 0.00 0.00 91 1014.4
20260508010030 60 96 4.0 6.0 0.00 0.00 0.00 90 1014.0
20260508005134 61 97 3.0 6.0 0.00 0.00 0.00 90 1014.5
20260508004519 60 107 3.0 6.0 0.00 0.00 0.00 90 1014.2
20260508004140 61 91 4.0 6.0 0.00 0.00 0.00 90 1014.5
20260508003137 61 89 0.0 2.0 0.00 0.00 0.00 88 1014.6
20260508003017 61 45 0.0 2.0 0.00 0.00 0.00 88 1014.2
20260508002130 61 77 1.0 3.0 0.00 0.00 0.00 88 1014.7
20260508001513 61 86 1.0 4.0 0.00 0.00 0.00 86 1014.3
20260508001157 62 84 3.0 4.0 0.00 0.00 0.00 87 1014.6
20260508000156 62 94 3.0 5.0 0.00 0.00 0.00 87 1014.6
20260507235134 62 99 4.0 7.0 0.00 0.00 0.00 88 1014.7
20260507234529 61 114 3.0 5.0 0.00 0.00 0.00 88 1014.3
20260507234145 62 101 3.0 5.0 0.00 0.00 0.00 88 1014.7
20260507233128 62 91 3.0 7.0 0.00 0.00 0.00 88 1014.8
20260507233026 61 102 4.0 9.0 0.00 0.00 0.00 88 1014.5
20260507232206 62 99 4.0 8.0 0.00 0.24 0.00 88 1014.8
20260507231524 62 102 5.0 7.0 0.00 0.00 0.00 88 1014.4
20260507231131 62 98 5.0 6.0 0.00 0.24 0.00 89 1014.8
20260507230128 62 105 5.0 7.0 0.00 0.24 0.00 89 1014.8
20260507230022 62 107 5.0 7.0 0.00 0.00 0.00 88 1014.4
20260507225131 62 105 6.0 10.0 0.00 0.24 0.00 89 1014.8
20260507224518 62 101 6.0 10.0 0.00 0.02 0.00 88 1014.4
20260507224203 62 100 6.0 8.0 0.00 0.24 0.00 89 1014.8
20260507223016 61 91 5.0 6.0 0.00 0.03 0.00 89 1014.3
20260507222129 62 103 5.0 7.0 0.00 0.31 0.00 89 1014.7
20260507221528 61 105 4.0 7.0 0.00 0.05 0.00 89 1014.3
20260507221123 62 96 4.0 5.0 0.00 0.31 0.00 90 1014.7
20260507220131 62 90 3.0 5.0 0.00 0.31 0.00 89 1014.7
20260507220028 61 92 3.0 6.0 0.00 0.06 0.00 89 1014.3
20260507215129 62 102 5.0 7.0 0.00 0.31 0.00 89 1014.6
20260507214524 61 91 5.0 7.0 0.00 0.06 0.06 88 1014.1
20260507214136 62 94 5.0 6.0 0.00 0.31 0.00 88 1014.5
20260507213138 62 85 4.0 5.0 0.00 0.31 0.00 87 1014.5
20260507213029 62 88 4.0 5.0 0.00 0.06 0.06 87 1014.1
20260507212138 62 85 4.0 7.0 0.00 0.31 0.00 87 1014.5
20260507211522 61 90 4.0 5.0 0.00 0.06 0.06 87 1014.1
20260507211130 62 98 4.0 5.0 0.00 0.31 0.00 87 1014.6
20260507210123 62 95 5.0 6.0 0.00 0.31 0.00 87 1014.6
20260507210017 61 115 5.0 6.0 0.00 0.06 0.06 86 1014.3
20260507205131 62 96 4.0 5.0 0.00 0.31 0.00 86 1014.7
20260507204514 61 91 4.0 6.0 0.00 0.06 0.06 86 1014.3
20260507204154 62 99 4.0 6.0 0.00 0.31 0.00 86 1014.7
20260507203129 62 98 4.0 5.0 0.00 0.31 0.00 86 1014.7
20260507203008 61 107 4.0 6.0 0.00 0.06 0.06 86 1014.3
20260507202126 62 102 4.0 6.0 0.00 0.31 0.00 86 1014.6
20260507201508 61 101 4.0 7.0 0.00 0.06 0.06 85 1014.4
20260507201133 62 79 4.0 7.0 0.00 0.31 0.00 86 1014.7
20260507200136 62 105 5.0 7.0 0.00 0.31 0.00 86 1014.8
20260507200012 61 110 5.0 7.0 0.00 0.06 0.06 85 1014.4
20260507195123 62 115 5.0 7.0 0.00 0.31 0.00 85 1014.6
20260507194524 62 107 5.0 9.0 0.00 0.06 0.06 84 1014.3
20260507194122 63 85 6.0 10.0 0.00 0.31 0.00 85 1014.6
20260507193126 63 122 6.0 8.0 0.00 0.31 0.00 86 1014.5
20260507193026 62 98 5.0 8.0 0.00 0.06 0.06 86 1014.1
20260507192157 63 95 4.0 8.0 0.00 0.31 0.00 87 1014.6
20260507191516 62 98 5.0 9.0 0.00 0.06 0.06 87 1014.0
20260507190148 62 100 4.0 6.0 0.00 0.31 0.00 86 1014.3
20260507190028 62 101 4.0 6.0 0.00 0.06 0.06 85 1013.9
20260507185204 63 98 4.0 8.0 0.00 0.31 0.00 84 1014.3
20260507184511 62 105 5.0 12.0 0.00 0.06 0.06 82 1013.9
20260507184149 63 118 7.0 12.0 0.00 0.31 0.00 81 1014.2
20260507183142 63 104 7.0 9.0 0.00 0.31 0.00 80 1014.1
20260507183016 62 112 7.0 9.0 0.00 0.06 0.06 79 1013.7
20260507182201 63 95 7.0 9.0 0.00 0.47 0.00 78 1013.9
20260507181523 63 97 6.0 8.0 0.00 0.07 0.06 78 1013.6
20260507181145 63 103 6.0 8.0 0.00 0.47 0.00 78 1013.9
20260507180151 64 119 6.0 9.0 0.00 0.47 0.00 77 1013.9
20260507180023 63 117 6.0 9.0 0.00 0.07 0.06 76 1013.4
20260507175151 64 88 6.0 9.0 0.00 0.47 0.00 74 1013.7
20260507174524 64 108 7.0 11.0 0.00 0.08 0.06 72 1013.2
20260507174149 65 110 7.0 13.0 0.00 0.47 0.00 72 1013.5
20260507173147 65 96 9.0 12.0 0.00 0.47 0.00 71 1013.5
20260507173032 65 94 8.0 12.0 0.00 0.09 0.06 71 1013.1
20260507172143 66 102 7.0 13.0 0.00 0.55 0.00 74 1013.5
20260507171514 65 90 9.0 13.0 0.00 0.10 0.06 71 1013.1
20260507171127 66 108 9.0 13.0 0.00 0.55 0.00 70 1013.5
20260507170133 67 102 6.0 12.0 0.00 0.55 0.00 69 1013.4
20260507170015 66 101 6.0 12.0 0.00 0.11 0.06 68 1013.1
20260507165150 67 112 9.0 12.0 0.00 0.55 0.00 68 1013.4
20260507164525 66 86 8.0 14.0 0.00 0.11 0.06 67 1012.9
20260507164137 67 87 12.0 14.0 0.00 0.55 0.00 66 1013.3
20260507163144 68 79 8.0 12.0 0.00 0.55 0.00 64 1013.2
20260507163027 67 91 8.0 12.0 0.00 0.11 0.06 62 1012.8
20260507161524 67 116 9.0 12.0 0.00 0.11 0.06 62 1012.8
20260507161151 68 88 8.0 13.0 0.00 0.55 0.00 62 1013.2
20260507160155 68 76 10.0 13.0 0.00 0.55 0.00 61 1013.1
20260507160020 67 103 10.0 13.0 0.00 0.11 0.06 58 1012.7
20260507155210 68 91 9.0 13.0 0.00 0.55 0.00 57 1013.2
20260507154516 68 91 10.0 13.0 0.00 0.11 0.06 57 1012.8
20260507154222 68 105 10.0 13.0 0.00 0.55 0.00 59 1013.2
20260507153011 68 87 9.0 13.0 0.00 0.11 0.06 60 1012.9
20260507151529 68 98 11.0 15.0 0.00 0.11 0.06 58 1013.0
20260507150027 68 89 12.0 16.0 0.00 0.11 0.06 62 1013.0
20260507144524 68 84 12.0 17.0 0.00 0.11 0.06 66 1013.0
20260507143021 69 103 12.0 17.0 0.00 0.13 0.06 61 1013.0
20260507141520 69 105 13.0 19.0 0.00 0.16 0.06 60 1013.0
20260507140020 69 83 10.0 14.0 0.00 0.16 0.06 58 1012.9
20260507134527 70 79 9.0 14.0 0.00 0.16 0.06 58 1013.0
20260507133026 70 73 11.0 14.0 0.00 0.16 0.06 58 1012.9
20260507131528 71 357 3.0 10.0 0.00 0.16 0.06 56 1013.0
20260507130030 71 329 2.0 8.0 0.00 0.16 0.06 58 1013.1
20260507124525 69 98 4.0 10.0 0.00 0.16 0.06 58 1013.1
20260507123033 70 89 6.0 9.0 0.00 0.16 0.06 61 1013.2
20260507121537 71 327 3.0 6.0 0.00 0.16 0.06 58 1013.4
20260507120004 71 6 1.0 5.0 0.00 0.16 0.06 55 1013.4
20260507114505 71 252 2.0 6.0 0.00 0.16 0.06 57 1013.5
20260507113004 70 330 2.0 5.0 0.00 0.16 0.06 55 1013.6
20260507111504 72 121 2.0 5.0 0.00 0.16 0.06 52 1013.6
20260507110004 70 219 0.0 4.0 0.00 0.16 0.06 55 1013.7
20260507104505 70 30 3.0 6.0 0.00 0.16 0.06 60 1013.8
20260507103008 70 313 1.0 6.0 0.00 0.16 0.06 57 1014.0
20260507101504 69 89 2.0 6.0 0.00 0.16 0.06 56 1014.1
20260507100006 71 358 1.0 3.0 0.00 0.16 0.06 56 1014.3
20260507094508 70 77 0.0 3.0 0.00 0.16 0.06 55 1014.3
20260507093006 69 195 1.0 6.0 0.00 0.16 0.06 59 1014.3
20260507091507 67 141 0.0 3.0 0.00 0.16 0.06 65 1014.2
20260507090006 66 257 4.0 6.0 0.00 0.16 0.06 62 1014.2
20260507084509 67 319 0.0 2.0 0.00 0.16 0.06 67 1013.9
20260507083022 66 330 3.0 6.0 0.00 0.16 0.06 66 1013.9
20260507081508 66 248 2.0 5.0 0.00 0.16 0.06 65 1013.7
20260507080011 67 0.0 2.0 0.00 0.16 0.06 61 1013.6
20260507074524 66 308 1.0 2.0 0.00 0.16 0.06 68 1013.6
20260507073013 65 257 1.0 4.0 0.00 0.16 0.06 70 1013.6
20260507071513 63 274 1.0 2.0 0.00 0.16 0.06 69 1013.6
20260507070014 63 232 1.0 3.0 0.00 0.16 0.06 74 1013.5
20260507064516 61 256 2.0 5.0 0.00 0.16 0.06 77 1013.4
20260507063009 60 276 4.0 6.0 0.00 0.17 0.06 76 1013.4
20260507061514 60 250 3.0 6.0 0.00 0.17 0.06 77 1013.3
20260507060019 59 232 2.0 5.0 0.00 0.17 0.06 77 1013.0
20260507054515 59 219 2.0 5.0 0.00 0.17 0.06 78 1013.1
20260507053019 57 213 1.0 3.0 0.00 0.18 0.06 81 1013.1
20260507051518 56 148 0.0 2.0 0.00 0.22 0.06 82 1012.8
20260507050012 55 146 1.0 1.0 0.00 0.23 0.06 83 1012.6
20260507044521 54 157 0.0 1.0 0.00 0.24 0.06 83 1012.4
20260507043031 54 143 0.0 2.0 0.00 0.27 0.06 81 1012.2
20260507041503 55 146 1.0 2.0 0.00 0.37 0.06 81 1012.2
20260507040016 0 0.0 0.0 0.00 0.46 0.06 1012.0
20260507034515 56 2.0 3.0 0.00 0.48 0.06 79 1011.8
20260507033024 57 208 1.0 3.0 0.00 0.48 0.06 80 1011.8
20260507031523 57 237 2.0 3.0 0.00 0.48 0.06 79 1011.8